Tracking 18840 objects as of 17-November-2017
HD Live streaming from Space Station
objects crossing your sky now

FENGYUN 1C DEB

Track FENGYUN 1C DEB now!
10-day predictions


NORAD ID: 31609
Int'l Code: 1999-025BZP
Perigee: 833.8 km
Apogee: 980.2 km
Inclination: 99.1 °
Period: 103.0 minutes
Semi major axis: 7277 km
RCS: 0.0061 m2 (small)
Launch date: May 10, 1999
Source: People's Republic of China (PRC)
Launch site: Taiyaun Space Center, China (TSC)

Note: This is SATELLITE DEBRIS
aabbcc
Your satellite tracking list
Your tracking list is empty




NASA's NSSDC Master Catalog

Two Line Element Set (TLE):
1 31609U 99025BZP 17320.82517469  .00000598  00000-0  43126-3 0  9990
2 31609  99.1391 276.4711 0100610 181.1302 242.0675 13.98252954534483
Source of the keplerian elements: AFSPC